Dewpoint
50 44 31 31 28 25 18 17 20 21 27 38 34 36 33 34 36 41 56 52 49 54 61 65 69 71 71 72 72 72 72 72 72 72 72 72 71 71 70 70 70 70 69 69 69 68 68 69 70
38 28 31 28 23 15 15 17 17 21 36 43 39 39 36 41 49 53 54 54 50 57 63 60 69 71 71 72 72 72 72 72 72 72 72 71 71 70 70 70 70 69 68 69 69 68 68 69 69
37 29 26 20 16 17 16 17 20 36 42 38 38 44 44 50 55 55 57 54 51 58 63 62 69 70 70 71 72 72 72 72 72 71 71 71 71 70 70 70 70 69 68 68 69 68 68 68 68
23 22 21 15 13 20 17 19 25 32 44 46 43 42 54 59 58 58 55 49 50 57 61 67 69 70 70 70 71 72 71 71 71 71 71 71 70 70 70 70 70 69 67 67 68 68 68 67 66
18 18 13 6 14 17 16 18 26 32 41 42 42 42 48 59 60 58 54 47 51 56 65 68 69 70 70 70 71 71 71 70 70 70 70 70 70 71 70 70 71 70 69 67 66 66 65 64 64
13 13 8 2 9 15 16 18 18 36 34 40 41 42 55 59 59 59 53 50 54 58 62 69 69 70 70 69 69 69 69 70 70 70 70 70 70 70 70 70 71 70 69 68 67 66 65 65 65
11 8 4 3 9 14 18 19 17 17 25 29 42 39 50 49 57 59 55 54 57 60 63 68 67 68 70 69 69 68 69 69 69 69 70 70 70 70 70 70 70 70 69 68 67 67 66 66 66
11 6 3 2 4 13 19 18 17 17 18 19 35 38 42 46 54 60 57 55 57 61 64 67 67 67 67 68 69 68 68 69 69 69 69 70 70 70 70 70 70 70 70 69 68 67 67 67 67
11 4 -2 0 4 13 20 17 19 19 16 17 23 36 43 45 51 55 58 55 54 59 62 66 66 67 66 65 68 68 68 69 69 69 70 69 66 67 68 67 68 69 69 69 69 69 68 68 68
11 5 4 9 11 11 16 17 17 15 13 15 17 22 41 44 45 47 51 54 54 55 58 62 64 65 65 62 67 67 67 66 66 66 68 67 65 66 65 67 68 69 69 69 69 68 68 67 62
14 7 15 11 19 19 16 16 15 14 12 13 18 22 24 26 37 42 43 46 54 56 56 59 63 64 63 58 64 63 63 64 65 66 66 66 66 67 66 67 66 66 68 66 66 65 64 63 63
17 17 14 15 22 20 18 16 14 12 13 15 24 27 27 26 26 37 40 43 48 56 56 58 62 64 64 60 62 61 60 61 64 66 68 67 67 66 64 65 65 66 65 65 65 65 65 64 63
18 12 20 19 21 21 20 18 16 14 14 23 28 29 28 29 29 31 38 41 47 54 57 58 61 63 64 62 62 61 61 63 64 67 67 66 65 65 65 65 65 64 65 58 57 56 59 58 58
28 25 23 22 21 17 19 17 19 18 24 26 30 30 31 31 31 36 38 43 48 53 57 59 63 63 63 63 63 65 64 65 67 66 65 66 66 66 65 64 65 59 57 56 56 59 56 58 60
27 25 19 20 19 19 23 19 18 21 28 28 29 31 32 33 34 34 41 46 48 53 57 60 63 64 64 64 64 63 66 66 62 61 59 61 62 63 62 61 61 57 57 59 58 58 56 56 60
25 22 20 17 19 22 23 15 20 27 30 29 29 31 32 33 35 39 42 42 48 52 57 64 65 66 66 65 65 64 63 60 59 58 59 59 60 61 62 60 59 59 58 57 56 55 53 58 61
24 18 17 18 21 22 25 23 24 27 29 30 31 32 33 35 36 43 47 47 44 47 58 66 66 66 66 65 60 59 59 59 60 59 59 59 59 59 60 60 60 58 57 56 55 55 56 54 58
15 19 21 20 23 28 26 25 27 28 29 32 32 33 35 37 39 47 53 55 49 45 63 66 66 66 61 58 57 57 57 58 59 60 59 57 56 56 57 58 58 57 55 55 54 54 53 53 56
26 24 21 20 23 27 28 28 27 29 30 32 33 34 35 37 42 50 57 60 62 65 65 65 63 60 59 58 57 57 56 59 59 57 55 55 54 54 55 54 55 54 53 53 55 54 53 52 54
29 26 24 25 27 29 29 28 28 29 30 32 33 34 34 38 45 52 57 59 61 62 61 60 59 59 60 59 59 59 58 58 56 53 52 51 51 52 52 52 52 52 52 53 53 53 52 52 55
29 28 27 27 29 31 30 28 27 28 31 32 35 35 38 41 46 52 56 58 59 60 60 59 58 59 60 61 60 58 57 55 52 52 51 51 51 49 50 50 50 52 52 51 52 53 52 50 51
28 30 31 30 29 26 28 23 24 30 30 32 35 36 39 42 48 52 55 57 58 58 58 57 57 58 59 60 58 57 55 53 53 52 52 51 50 49 49 50 50 51 49 48 50 50 49 49 47
31 33 32 31 29 28 27 26 23 27 28 29 34 37 40 42 47 51 54 56 57 58 58 58 58 57 58 59 58 57 56 55 55 54 52 50 49 48 49 49 49 48 47 47 47 47 47 46 46
34 34 32 32 31 27 27 25 20 22 25 28 33 37 40 42 47 51 54 56 57 58 58 59 59 58 58 58 57 56 55 52 52 53 52 51 50 49 48 49 49 48 47 47 47 47 47 46 44
34 32 28 25 24 23 23 23 23 27 27 29 32 35 38 42 45 48 50 53 56 57 58 58 57 55 55 55 55 54 53 51 50 50 48 47 47 48 49 49 49 48 48 47 46 46 46 45 44
33 31 25 21 20 19 23 23 22 27 28 29 31 35 37 40 41 42 45 49 53 55 56 54 52 51 53 53 52 51 51 49 47 48 46 47 45 46 49 50 49 47 47 47 46 45 45 45 45
32 31 30 26 27 28 25 25 30 30 30 29 30 33 35 38 38 39 41 44 47 49 51 50 46 45 47 49 50 51 51 49 47 48 50 48 48 47 50 49 49 48 47 47 46 45 45 45 44
31 32 31 30 27 25 21 20 19 29 31 29 29 31 33 35 36 37 38 40 42 43 46 48 46 44 44 47 48 48 49 49 49 50 50 49 49 50 48 49 49 48 47 47 46 45 44 44 43
30 30 30 30 28 23 20 19 27 30 31 31 31 31 31 33 34 35 36 37 39 41 43 48 49 47 46 48 48 48 48 49 49 49 49 49 50 49 48 47 47 47 47 47 46 45 43 43 42
31 30 31 29 28 30 29 28 29 29 32 32 30 30 30 32 33 33 34 36 37 38 40 43 44 46 47 48 48 49 49 48 48 48 48 48 48 47 46 46 47 46 45 45 45 44 42 42 41
Wind_Speed
13 11 12 9 10 10 5 7 4 8 7 6 5 9 12 13 14 6 4 6 11 20 24 22 19 17 15 14 15 18 19 18 18 16 14 13 13 13 12 10 9 10 12 11 10 11 13 12 12
13 6 9 10 10 18 10 3 5 7 6 4 5 1 3 13 11 8 6 6 14 18 20 21 17 16 16 14 14 17 19 18 18 17 15 13 13 12 11 10 10 10 11 11 10 10 11 12 9
10 8 14 7 16 13 13 7 5 8 7 6 4 3 4 9 10 5 7 8 14 17 18 19 17 15 15 15 15 16 18 19 18 17 15 13 12 11 11 10 9 9 10 10 11 10 9 10 10
7 7 9 12 15 8 12 7 3 9 6 1 5 8 9 10 4 8 7 12 16 16 17 24 18 16 16 16 15 15 17 18 18 16 14 13 12 12 10 9 9 9 10 9 10 10 8 7 7
12 11 17 17 4 4 7 5 5 2 4 2 3 6 8 12 8 7 9 12 14 15 19 19 20 17 17 16 15 15 16 17 16 15 14 12 11 11 10 10 8 9 9 9 9 8 8 7 5
12 7 16 17 10 8 6 5 6 4 3 4 5 4 9 9 8 6 10 12 12 12 14 16 18 17 17 17 16 16 16 16 15 14 13 12 11 10 9 9 9 10 9 9 8 7 7 6 5
14 12 19 12 11 9 7 4 6 3 2 7 4 5 9 12 8 6 10 12 12 13 12 16 18 17 15 15 15 15 16 17 16 15 13 11 10 9 8 7 8 8 11 9 8 8 7 6 6
11 9 15 11 4 8 5 2 1 5 10 3 5 1 7 6 4 6 10 13 13 13 13 16 17 17 16 14 13 15 16 16 15 14 13 11 9 8 8 7 7 7 7 8 7 7 7 6 6
7 12 14 9 4 9 4 2 7 2 6 4 1 4 6 3 2 5 9 13 15 14 14 15 17 17 16 16 15 13 13 13 12 12 11 11 11 12 12 12 13 8 7 7 7 7 8 8 10
11 12 7 10 6 3 2 2 5 5 5 8 4 1 4 5 7 8 10 13 15 16 16 15 14 16 16 15 16 15 14 13 13 13 13 13 14 11 12 14 12 11 9 8 9 10 10 11 14
3 13 9 4 4 4 5 7 5 8 11 4 7 9 8 9 9 11 13 13 16 16 16 16 15 15 15 13 14 14 14 13 13 13 14 13 7 5 10 9 10 11 12 12 12 12 12 13 12
7 3 3 1 2 6 8 10 11 10 11 5 7 6 9 10 10 11 12 11 10 15 18 15 14 13 13 11 12 12 11 12 7 7 7 6 5 8 11 6 7 9 11 10 12 12 14 11 10
11 8 4 6 7 10 11 13 12 13 9 4 3 7 7 9 11 10 9 9 8 12 15 17 14 13 13 10 9 8 8 8 10 8 7 8 9 9 6 6 8 10 13 7 5 5 6 4 9
3 8 10 9 11 10 10 12 5 8 4 8 4 5 6 7 9 10 7 7 8 9 16 16 16 13 13 12 9 7 8 8 9 9 13 9 6 9 11 13 9 5 4 4 6 7 3 2 5
7 12 11 14 12 9 5 15 19 9 6 8 7 3 6 5 6 8 8 6 8 7 9 20 18 14 13 11 11 10 10 14 15 14 16 14 16 16 14 17 22 9 6 3 4 3 6 1 3
10 10 14 8 8 8 5 13 10 9 4 10 6 7 6 5 2 5 6 7 8 7 12 16 17 17 10 10 10 9 14 15 15 14 15 10 8 13 5 5 8 11 8 5 5 5 3 6 11
13 14 15 10 11 7 10 11 2 8 9 10 12 8 3 5 2 6 7 5 4 9 14 19 17 15 14 11 14 14 15 14 12 11 11 14 9 10 14 8 2 7 6 5 3 1 2 3 9
15 16 12 11 7 9 14 19 16 16 10 9 9 6 5 3 2 6 9 8 2 6 17 16 13 12 16 16 15 14 13 10 9 8 5 14 10 7 11 7 4 9 3 1 3 2 3 3 9
16 16 18 20 13 6 18 23 17 11 11 12 8 5 3 3 5 10 11 11 12 14 15 14 16 16 17 15 14 12 11 10 9 8 9 11 7 7 7 9 9 5 3 3 4 3 2 5 13
15 17 20 20 18 8 20 23 17 13 12 8 9 8 4 4 8 8 10 9 10 12 12 14 16 15 13 13 10 8 12 7 8 8 7 9 7 6 6 6 5 4 7 2 3 6 5 9 12
17 19 19 19 7 15 21 24 30 14 8 10 8 5 6 5 7 8 9 9 9 9 10 12 13 13 11 15 13 13 11 9 6 4 6 6 6 3 1 2 4 2 2 6 4 3 5 9 12
19 15 15 18 14 16 2 18 5 17 15 15 11 11 8 9 9 9 10 10 9 8 9 11 13 16 11 14 17 18 12 11 5 6 6 7 5 4 4 3 4 5 4 5 7 8 6 9 14
14 6 10 14 17 19 22 13 21 21 20 17 15 12 10 8 10 12 12 12 11 9 11 13 14 15 14 13 13 12 6 7 9 9 9 8 8 8 7 7 6 5 4 3 2 3 5 9 10
4 7 9 11 14 22 21 22 16 21 19 17 16 14 12 11 12 12 12 13 12 11 13 15 17 16 15 13 10 8 10 9 9 9 11 9 8 8 9 8 5 3 1 1 2 3 5 7 8
15 13 9 12 16 21 15 17 22 7 7 22 20 16 13 13 14 14 15 15 15 13 15 15 17 15 12 10 10 9 10 7 8 10 11 11 11 10 11 9 7 6 5 4 4 5 5 6 7
26 24 14 15 19 20 13 10 16 2 14 17 19 17 16 16 14 14 15 16 18 18 17 16 14 13 12 10 9 8 8 10 8 9 6 8 6 7 8 8 5 4 4 4 4 5 4 2 4
22 31 22 23 12 9 15 10 9 8 15 19 21 20 19 18 17 16 16 16 17 18 16 15 13 13 11 10 9 9 9 8 8 5 6 6 5 6 10 10 10 8 7 7 6 6 5 4 4
31 17 21 20 17 24 18 25 23 22 22 22 24 23 21 20 19 17 17 16 17 16 15 12 10 10 11 10 11 10 10 8 8 8 9 8 9 9 10 9 8 7 8 8 8 7 6 6 5
24 25 19 20 21 15 24 23 13 26 26 27 26 24 23 22 20 19 18 17 16 15 15 14 13 12 11 11 10 9 9 9 9 10 9 8 7 6 7 8 9 10 9 9 9 9 7 7 6
26 24 28 19 25 32 25 30 7 4 19 23 26 25 23 22 21 19 18 18 18 17 16 15 13 13 13 12 11 11 11 10 9 7 6 5 8 9 9 9 10 11 11 11 11 11 8 8 8
Wind_Direction
275 233 240 258 246 231 175 105 77 121 140 64 49 7 22 33 13 35 91 119 156 151 155 160 149 144 144 146 147 149 148 148 148 146 145 141 136 130 127 128 126 121 118 117 114 112 113 114 112
290 267 245 266 251 224 111 72 66 54 64 102 83 342 47 66 37 96 126 145 148 145 153 162 149 141 139 143 145 149 149 149 147 145 147 143 139 134 134 135 131 125 123 120 118 118 120 119 115
263 255 264 237 248 327 102 63 56 102 116 142 166 23 0 41 50 42 46 148 153 147 154 150 147 140 141 147 152 154 151 150 148 148 148 145 143 142 143 143 139 132 128 127 126 123 121 120 120
259 207 244 245 230 41 56 54 9 125 131 302 355 122 106 44 32 29 108 151 149 148 161 137 149 149 151 155 157 156 152 150 149 150 149 149 150 151 152 153 148 143 138 135 131 128 128 128 127
235 261 257 233 132 111 98 55 34 115 97 40 312 90 90 57 69 76 123 148 151 152 127 144 153 159 159 159 160 157 152 151 153 154 154 154 156 158 161 161 158 150 145 141 139 141 143 143 139
253 261 249 230 171 140 98 44 48 68 96 51 220 327 75 76 54 91 137 149 148 155 147 150 157 163 163 165 165 163 157 158 160 159 161 163 166 168 168 169 169 157 154 150 153 158 158 159 158
251 263 262 302 126 169 84 349 44 354 226 49 353 279 99 60 56 108 145 152 156 160 160 158 171 173 167 169 169 165 166 167 167 168 170 173 174 177 179 185 180 180 171 166 166 169 175 176 183
276 270 271 249 216 124 107 325 55 7 54 325 338 42 88 55 92 136 156 167 168 165 164 166 172 173 173 174 173 171 175 175 172 173 175 175 174 185 193 189 194 183 174 178 180 183 189 199 209
261 257 251 234 224 102 98 276 95 324 284 301 339 342 29 21 151 178 180 184 176 175 172 171 171 176 178 176 174 175 180 177 174 177 180 176 200 189 185 206 174 187 197 196 207 208 210 214 222
246 259 348 40 34 81 166 233 330 289 255 294 248 105 181 270 257 246 210 205 197 185 178 175 176 176 179 183 160 187 183 188 192 193 183 207 219 199 200 172 166 181 196 217 221 223 233 235 248
243 263 28 85 26 323 301 277 290 278 284 272 314 304 301 287 258 257 254 232 200 194 185 179 180 177 186 188 166 190 183 196 197 204 200 205 221 214 232 180 192 198 203 214 209 222 232 246 283
257 227 272 28 205 274 277 299 287 280 277 313 278 303 289 290 276 250 250 248 223 187 187 182 180 179 192 182 188 191 193 197 181 205 201 206 200 218 230 196 213 206 213 231 218 224 228 232 272
244 267 248 249 248 257 274 267 270 267 260 218 269 278 296 310 305 273 246 255 212 192 185 175 179 183 191 196 191 208 201 172 198 165 186 208 218 236 248 236 215 224 207 237 267 262 8 283 292
20 284 270 255 254 252 251 267 231 207 173 244 199 280 302 313 325 296 258 243 238 194 171 177 176 198 191 196 171 175 209 115 82 65 30 19 14 7 342 326 326 333 4 10 298 359 289 141 25
271 276 256 237 240 232 247 251 220 222 213 243 218 195 296 309 336 343 323 289 211 211 189 181 175 186 187 194 185 189 113 87 85 71 61 51 54 47 58 30 352 348 336 321 261 228 255 109 86
257 250 268 123 187 176 221 279 170 169 211 270 276 273 269 281 315 46 8 312 278 223 181 152 158 176 183 169 187 102 104 100 107 109 103 77 80 102 77 79 337 348 316 321 259 254 237 93 62
215 260 235 201 194 249 217 280 270 191 244 269 273 275 294 284 276 21 0 323 274 248 161 151 156 164 175 136 91 97 100 111 114 115 130 140 163 137 120 122 36 312 273 316 321 42 341 164 102
253 229 229 255 182 223 261 257 261 260 263 251 270 265 246 260 43 40 22 6 18 207 128 139 138 136 104 98 100 96 106 113 132 138 129 138 142 140 119 114 109 260 306 184 276 323 259 188 130
292 275 274 280 271 279 266 266 263 253 241 235 231 227 200 196 106 59 44 31 62 73 113 128 119 123 122 122 123 122 129 147 150 150 164 130 143 151 136 156 170 194 139 47 303 241 245 217 119
245 258 264 270 268 286 267 268 260 238 227 220 214 199 190 146 95 74 66 73 74 88 97 112 124 129 131 136 136 132 136 145 138 160 142 103 150 176 166 169 164 173 129 164 251 267 253 264 168
239 255 265 268 252 234 259 273 249 217 188 196 201 177 144 118 110 98 90 90 95 100 113 123 122 128 134 136 127 120 132 139 155 165 127 150 178 163 113 102 99 54 155 148 204 262 259 257 242
252 251 255 265 254 264 118 266 160 156 187 196 185 172 145 131 116 112 111 104 99 100 115 127 133 139 150 169 156 167 174 168 153 161 159 163 160 161 148 154 197 215 193 179 196 215 232 232 254
254 283 246 252 252 261 258 248 270 176 188 194 185 167 149 134 121 119 117 117 119 133 140 146 148 156 167 173 164 174 167 171 160 172 156 172 177 187 195 203 199 197 198 173 228 214 238 247 249
230 222 234 245 250 252 251 253 253 211 207 174 173 170 156 145 127 122 127 126 124 130 135 140 150 158 167 170 184 169 170 152 158 163 176 183 183 187 192 192 195 179 153 210 213 223 246 255 264
197 199 217 233 224 243 259 232 232 112 174 166 175 168 159 152 145 145 142 132 132 137 142 149 158 159 159 158 164 168 163 174 166 169 193 174 181 185 178 192 188 181 183 188 202 205 233 243 258
202 202 214 226 248 260 208 228 242 259 155 159 170 166 162 159 157 151 142 144 143 147 156 161 159 153 163 169 177 179 180 185 200 198 179 204 200 180 148 201 196 188 188 202 205 225 233 256 253
200 224 233 263 264 274 254 202 191 164 162 169 172 175 175 170 170 161 156 154 152 155 157 164 166 162 169 181 194 194 194 209 204 185 197 203 199 182 189 200 199 197 200 202 208 239 233 225 242
234 207 219 229 239 238 246 249 260 175 180 186 189 187 183 180 178 170 171 169 166 162 161 168 181 185 180 194 205 206 205 206 206 204 208 206 211 206 199 210 218 220 216 212 215 226 222 233 232
203 220 219 220 226 235 251 257 331 168 192 196 199 198 191 187 185 182 185 183 180 178 173 184 190 201 210 204 215 210 215 203 206 213 214 215 217 221 227 225 228 232 231 223 223 232 236 224 240
207 209 209 210 219 232 257 263 116 195 193 197 200 198 197 195 195 192 196 191 191 191 191 192 204 214 222 219 215 214 209 207 207 218 216 206 213 215 229 227 233 239 233 236 232 228 223 230 230